GLOBALSTAR M079 [+]

Last updated on Fri Dec 29 2023 00:02:56 GMT+0000 (Coordinated Universal Time)

1 37188U 10054A 23362.15536081 -.00000092 00000+0 64664-4 0 9993 2 37188 52.0059 334.5975 0000209 92.4408 348.7759 12.62270899609312

Satellite not in orbit

GLOBALSTAR M079 [+]